Location: Newark
(55.6749°N, 3.7770°W)
Time: 16:26:00
(UTC+00:00)

N. Korean satellite - Visible Passes

Search period start: 06 December 2019 00:00
Search period end: 16 December 2019 00:00
Orbit: 456 x 506 km, 97.2° (Epoch: 06 December)

Date Brightness Start Highest point End Pass type
(mag) Time Alt. Az. Time Alt. Az. Time Alt. Az.
06 Dec 9.7 05:09:19 10° NE 05:11:33 15° E 05:13:42 10° SE visible
06 Dec 6.5 06:41:45 10° N 06:45:21 63° WNW 06:48:52 10° SSW visible
06 Dec 7.5 17:23:57 10° S 17:27:36 54° W 17:31:16 10° NNW visible
07 Dec 6.8 06:16:18 10° NNE 06:19:55 70° ESE 06:23:27 10° S visible
07 Dec 6.6 16:58:25 10° SSE 17:02:08 84° ENE 17:05:52 10° NNW visible
07 Dec 10.0 18:34:21 10° WSW 18:36:04 13° W 18:37:47 10° WNW visible
08 Dec 8.1 05:51:01 10° NNE 05:54:24 37° E 05:57:43 10° SSE visible
08 Dec 7.6 07:24:40 10° N 07:27:40 25° WNW 07:30:37 10° WSW visible
08 Dec 6.9 16:33:11 10° SE 16:36:46 47° ENE 16:40:20 10° N visible
08 Dec 9.4 18:07:29 10° SW 18:10:22 21° W 18:13:16 10° NW visible
09 Dec 9.2 05:25:57 10° NE 05:28:47 22° E 05:31:34 10° SE visible
09 Dec 6.9 06:58:57 10° N 07:02:23 42° WNW 07:05:43 10° SW visible
09 Dec 8.3 17:41:19 10° SSW 17:44:46 36° W 17:48:13 10° NNW visible
10 Dec 9.9 05:01:25 10° ENE 05:03:05 13° E 05:04:43 10° ESE visible
10 Dec 6.4 06:33:24 10° NNE 06:37:00 77° WNW 06:40:30 10° SSW visible
10 Dec 7.1 17:15:34 10° S 17:19:15 65° WSW 17:22:55 10° NNW visible
11 Dec 7.2 06:07:59 10° NNE 06:11:32 57° E 06:14:59 10° S visible
11 Dec 8.0 07:42:05 10° NNW 07:44:35 18° WNW 07:47:04 10° WSW visible
11 Dec 6.6 16:50:07 10° SSE 16:53:48 70° ENE 16:57:28 10° N visible
11 Dec 9.9 18:25:26 10° SW 18:27:37 15° W 18:29:48 10° NW visible
12 Dec 8.4 05:42:45 10° NNE 05:45:58 31° E 05:49:07 10° SSE visible
12 Dec 7.4 07:16:13 10° N 07:19:21 29° WNW 07:22:25 10° SW visible
12 Dec 7.1 16:24:58 10° SE 16:28:26 39° ENE 16:31:53 10° N visible
12 Dec 9.1 17:58:51 10° SSW 18:01:57 25° W 18:05:02 10° NW visible
13 Dec 9.4 05:17:48 10° NE 05:20:19 18° E 05:22:48 10° SE visible
13 Dec 6.6 06:50:33 10° N 06:54:01 50° WNW 06:57:24 10° SW visible
13 Dec 7.9 17:32:49 10° S 17:36:22 43° W 17:39:53 10° NNW visible
14 Dec 10.1 04:53:55 10° ENE 04:54:35 10° E 04:55:14 10° E visible
14 Dec 6.4 06:25:02 10° NNE 06:28:36 87° ESE 06:32:06 10° SSW visible
14 Dec 6.8 17:07:10 10° S 17:10:52 79° WSW 17:14:32 10° NNW visible
14 Dec 10.3 18:44:27 10° W 18:44:54 10° W 18:45:21 10° WNW visible
15 Dec 7.6 05:59:40 10° NNE 06:03:06 46° E 06:06:28 10° S visible
15 Dec 7.8 07:33:33 10° N 07:36:16 21° WNW 07:38:56 10° WSW visible
15 Dec 6.7 16:41:49 10° SSE 16:45:27 57° ENE 16:49:02 10° N visible
15 Dec 9.7 18:16:38 10° SW 18:19:09 17° W 18:21:41 10° NW visible
